Location: Cz?stochówka
(50.8142°N, 19.0915°E)
Time: 15:22:08
(UTC+00:00)

Cosmos 2366 rocket - Pass Details

Date: 16 April 2026
Orbit: 954 x 996 km, 82.9° (Epoch: 16 May)

Event Time Altitude Azimuth Distance (km) Brightness Sun altitude
Rises 18:14:11 0° 164° (SSE) 3,637 6.6 -5.8°
Reaches altitude 10° 18:16:47 10° 158° (SSE) 2,690 5.9 -6.2°
Maximum altitude 18:22:31 43° 89° (E) 1,329 4.4 -7.0°
Drops below altitude 10° 18:28:15 10° 21° (NNE) 2,695 6.4 -7.8°
Sets 18:30:51 0° 15° (NNE) 3,645 7.2 -8.2°
